�N����,����,�~����,�C��,���x,�C��,����,���ϕ���,�ő�u�ԕ���,�ő厞����,���˗�,�I�_���x,�n�����x,�ő啗���N��,DTYPE
"16/11/13","00:10",0.0,9.5,92.3,1019.7,320.2,1.2,2.0,326.6,0.00,8.4,13.0,"00:00:10",1
"16/11/13","00:20",0.0,9.3,91.7,1019.7,327.8,1.1,2.4,332.5,0.00,8.1,12.9,"00:15:36",1
"16/11/13","00:30",0.0,9.0,92.1,1019.7,294.0,1.0,1.3,319.4,0.00,7.8,12.9,"00:26:54",1
"16/11/13","00:40",0.0,8.8,92.8,1019.4,307.7,1.0,1.4,324.9,0.00,7.7,12.8,"00:38:38",1
"16/11/13","00:50",0.0,8.7,93.5,1019.7,302.7,1.1,1.3,316.9,0.00,7.8,12.9,"00:44:00",1
"16/11/13","01:00",0.0,8.6,94.2,1019.4,307.3,1.2,1.6,323.2,0.00,7.8,13.1,"00:59:40",1
"16/11/13","01:10",0.0,8.6,94.9,1019.2,312.7,1.5,1.7,316.2,0.00,7.9,13.0,"01:03:42",1
"16/11/13","01:20",0.0,8.7,95.3,1019.4,308.9,1.0,1.6,320.2,0.00,8.0,12.9,"01:16:42",1
"16/11/13","01:30",0.0,8.9,95.4,1019.4,297.2,0.8,1.3,299.5,0.00,8.2,12.9,"01:28:26",1
"16/11/13","01:40",0.0,9.0,95.3,1019.4,325.6,1.2,2.1,336.2,0.00,8.3,13.0,"01:38:40",1
"16/11/13","01:50",0.0,8.9,95.3,1019.4,301.0,0.8,1.2,309.7,0.00,8.2,12.9,"01:45:30",1
"16/11/13","02:00",0.0,8.9,95.7,1019.2,324.8,1.5,2.8,321.1,0.00,8.3,12.9,"01:57:08",1
"16/11/13","02:10",0.0,8.9,95.6,1019.7,307.0,1.1,1.7,324.0,0.00,8.3,12.8,"02:03:22",1
"16/11/13","02:20",0.0,8.7,95.7,1019.2,298.5,1.1,1.6,313.1,0.00,8.1,13.0,"02:16:18",1
"16/11/13","02:30",0.0,8.8,95.4,1019.0,285.5,1.1,1.7,252.1,0.00,8.1,12.7,"02:26:40",1
"16/11/13","02:40",0.0,8.7,95.6,1019.4,311.8,1.5,1.8,332.9,0.00,8.1,12.6,"02:31:12",1
"16/11/13","02:50",0.0,8.5,95.5,1019.0,310.0,0.8,1.7,323.8,0.00,7.9,12.9,"02:43:42",1
"16/11/13","03:00",0.0,8.3,95.7,1018.5,309.8,1.2,1.8,311.7,0.00,7.7,12.8,"02:54:28",1
"16/11/13","03:10",0.0,8.0,96.0,1018.5,311.3,1.5,2.1,337.0,0.00,7.4,12.6,"03:09:40",1
"16/11/13","03:20",0.0,7.9,96.3,1018.7,307.3,1.6,2.8,339.1,0.00,7.4,12.8,"03:11:30",1
"16/11/13","03:30",0.0,8.2,96.8,1019.0,319.7,1.6,2.4,333.5,0.00,7.8,12.8,"03:25:24",1
"16/11/13","03:40",0.0,8.2,96.9,1019.0,296.7,1.3,2.0,318.0,0.00,7.8,12.7,"03:39:40",1
"16/11/13","03:50",0.0,8.3,96.8,1018.7,286.9,1.0,1.8,304.0,0.00,7.9,12.5,"03:40:12",1
"16/11/13","04:00",0.0,8.3,97.0,1019.2,294.0,1.0,1.2,306.3,0.00,7.9,12.6,"03:50:22",1
"16/11/13","04:10",0.0,8.3,96.9,1019.2,320.8,0.6,1.3,267.6,0.00,7.9,12.7,"04:05:12",1
"16/11/13","04:20",0.0,8.2,96.7,1019.0,313.0,1.3,1.8,314.0,0.00,7.7,12.7,"04:18:22",1
"16/11/13","04:30",0.0,8.0,96.7,1019.4,320.6,1.2,1.7,324.5,0.00,7.5,12.7,"04:22:16",1
"16/11/13","04:40",0.0,7.7,96.7,1019.7,300.7,1.3,1.7,320.9,0.00,7.2,12.4,"04:33:00",1
"16/11/13","04:50",0.0,7.6,97.1,1019.4,296.2,1.2,1.9,318.1,0.00,7.2,12.4,"04:49:56",1
"16/11/13","05:00",0.0,7.7,97.4,1019.9,325.5,2.0,2.2,323.1,0.00,7.4,12.5,"04:53:38",1
"16/11/13","05:10",0.0,7.6,97.3,1019.4,298.8,1.3,1.7,327.4,0.00,7.2,12.4,"05:00:08",1
"16/11/13","05:20",0.0,7.3,97.2,1019.7,306.6,1.6,1.9,311.8,0.00,6.9,12.3,"05:17:56",1
"16/11/13","05:30",0.0,7.1,97.6,1019.7,310.2,1.7,2.1,315.4,0.00,6.8,12.2,"05:26:26",1
"16/11/13","05:40",0.0,6.9,97.6,1019.9,297.1,1.6,1.9,310.2,0.00,6.6,12.3,"05:30:08",1
"16/11/13","05:50",0.0,7.0,98.2,1019.7,306.2,1.7,2.1,318.0,0.00,6.8,12.1,"05:46:32",1
"16/11/13","06:00",0.0,7.2,97.1,1019.9,301.5,1.6,1.8,306.6,0.00,6.8,12.1,"05:50:48",1
"16/11/13","06:10",0.0,6.9,97.8,1019.7,317.3,2.1,2.6,320.2,0.00,6.6,12.2,"06:07:40",1
"16/11/13","06:20",0.0,6.7,98.1,1019.9,291.3,1.8,2.6,312.7,0.00,6.5,12.3,"06:12:48",1
"16/11/13","06:30",0.0,6.9,97.5,1019.9,309.8,1.7,2.1,318.2,0.00,6.6,12.0,"06:29:22",1
"16/11/13","06:40",0.0,6.6,98.0,1019.7,290.4,1.5,1.9,314.9,0.00,6.3,12.0,"06:30:48",1
"16/11/13","06:50",0.0,6.7,97.3,1019.2,305.7,1.7,2.1,317.1,0.00,6.3,11.9,"06:40:32",1
"16/11/13","07:00",0.0,6.4,98.2,1019.7,294.0,1.3,1.6,284.4,0.00,6.2,12.0,"06:56:08",1
"16/11/13","07:10",0.0,7.0,97.9,1020.1,311.6,1.2,1.8,332.1,0.00,6.7,12.0,"07:06:00",1
"16/11/13","07:20",0.0,7.1,98.7,1019.9,297.8,1.7,2.2,317.0,0.00,6.9,12.0,"07:14:16",1
"16/11/13","07:30",0.0,8.0,98.3,1020.1,275.1,1.1,1.4,250.7,0.01,7.8,12.0,"07:23:04",1
"16/11/13","07:40",0.0,8.7,97.9,1020.4,303.5,0.7,1.3,332.7,0.02,8.4,11.9,"07:30:08",1
"16/11/13","07:50",0.0,9.1,97.9,1020.6,276.8,0.8,1.1,323.1,0.03,8.8,11.9,"07:40:02",1
"16/11/13","08:00",0.0,9.7,95.7,1020.6,320.1,1.2,1.9,322.9,0.04,9.1,11.8,"07:55:12",1
"16/11/13","08:10",0.0,10.5,92.8,1020.8,309.9,1.0,1.6,314.0,0.06,9.4,12.1,"08:00:08",1
"16/11/13","08:20",0.0,11.6,89.8,1021.3,290.9,0.7,1.2,306.3,0.07,10.0,12.2,"08:10:24",1
"16/11/13","08:30",0.0,12.0,87.5,1021.1,340.9,0.6,1.0,335.3,0.09,10.0,12.2,"08:22:40",1
"16/11/13","08:40",0.0,12.5,84.5,1021.1,256.2,0.3,1.0,248.7,0.11,10.0,12.3,"08:33:12",1
"16/11/13","08:50",0.0,13.0,81.1,1021.3,314.2,0.3,1.0,302.2,0.14,9.9,12.4,"08:42:40",1
"16/11/13","09:00",0.0,13.4,80.3,1021.5,218.8,0.8,1.8,227.3,0.18,10.1,12.4,"08:55:36",1
"16/11/13","09:10",0.0,13.6,77.8,1021.8,228.2,0.8,1.7,222.2,0.22,9.8,12.6,"09:02:08",1
"16/11/13","09:20",0.0,14.2,76.6,1022.0,226.4,0.6,1.2,242.0,0.24,10.2,12.7,"09:10:16",1
"16/11/13","09:30",0.0,14.8,74.5,1021.5,243.2,0.6,1.4,233.7,0.26,10.4,12.9,"09:22:48",1
"16/11/13","09:40",0.0,15.0,71.7,1021.5,235.2,0.7,2.5,210.1,0.29,10.0,13.2,"09:39:20",1
"16/11/13","09:50",0.0,15.2,71.7,1021.5,232.9,0.8,2.0,230.9,0.31,10.2,13.4,"09:40:48",1
"16/11/13","10:00",0.0,15.8,69.0,1021.8,243.0,0.5,1.9,302.2,0.33,10.2,13.6,"09:59:20",1
"16/11/13","10:10",0.0,16.1,68.2,1021.3,224.6,0.7,1.9,237.2,0.34,10.3,13.8,"10:03:20",1
"16/11/13","10:20",0.0,16.8,63.1,1021.1,240.6,0.3,1.0,213.5,0.36,9.8,14.0,"10:10:56",1
"16/11/13","10:30",0.0,17.3,60.6,1020.8,284.9,0.3,1.3,191.2,0.37,9.7,14.0,"10:26:56",1
"16/11/13","10:40",0.0,17.2,58.9,1020.4,158.2,0.8,1.7,34.2,0.39,9.1,14.4,"10:30:32",1
"16/11/13","10:50",0.0,18.1,59.6,1020.1,251.3,0.5,1.4,224.9,0.40,10.2,14.5,"10:43:04",1
"16/11/13","11:00",0.0,18.2,57.7,1019.9,135.3,0.8,1.7,110.0,0.41,9.8,14.7,"10:51:52",1
"16/11/13","11:10",0.0,18.7,57.8,1019.4,189.4,1.0,2.4,197.7,0.41,10.3,15.0,"11:05:28",1
"16/11/13","11:20",0.0,18.7,56.4,1018.7,128.5,0.8,2.2,111.1,0.42,9.9,15.1,"11:19:20",1
"16/11/13","11:30",0.0,18.7,53.6,1019.0,116.7,1.1,2.8,110.6,0.43,9.1,15.2,"11:24:24",1
"16/11/13","11:40",0.0,19.3,56.7,1018.2,186.8,1.1,2.5,154.4,0.44,10.5,15.7,"11:33:20",1
"16/11/13","11:50",0.0,19.1,57.1,1018.0,214.5,1.8,3.6,191.1,0.44,10.5,15.8,"11:46:40",1
"16/11/13","12:00",0.0,19.4,55.4,1018.0,213.2,1.6,2.9,208.3,0.44,10.3,15.9,"11:57:28",1
"16/11/13","12:10",0.0,19.6,58.1,1017.5,210.9,1.6,5.0,227.6,0.46,11.2,16.1,"12:03:52",1
"16/11/13","12:20",0.0,19.9,58.9,1017.1,189.3,1.1,2.7,223.5,0.45,11.7,16.2,"12:18:48",1
"16/11/13","12:30",0.0,20.1,56.0,1016.8,231.8,1.0,3.3,230.5,0.44,11.1,16.4,"12:20:48",1
"16/11/13","12:40",0.0,20.1,57.0,1016.4,215.2,1.7,3.5,231.8,0.43,11.4,16.5,"12:34:24",1
"16/11/13","12:50",0.0,20.4,53.8,1016.6,214.1,1.0,2.2,231.3,0.42,10.8,16.6,"12:47:28",1
"16/11/13","13:00",0.0,20.5,55.3,1016.4,166.5,0.7,1.8,118.3,0.39,11.3,16.7,"12:58:40",1
"16/11/13","13:10",0.0,20.1,54.8,1016.4,215.2,1.5,2.9,114.3,0.34,10.8,16.9,"13:00:24",1
"16/11/13","13:20",0.0,20.4,57.0,1016.4,219.2,1.0,2.2,232.4,0.30,11.6,17.1,"13:15:44",1
"16/11/13","13:30",0.0,21.0,55.0,1016.6,197.9,1.5,3.3,224.1,0.40,11.7,17.4,"13:22:32",1
"16/11/13","13:40",0.0,20.1,58.8,1016.6,227.3,1.2,3.1,231.5,0.18,11.8,17.1,"13:35:36",1
"16/11/13","13:50",0.0,20.1,59.1,1016.4,233.6,1.0,2.8,233.2,0.18,11.9,17.3,"13:49:52",1
"16/11/13","14:00",0.0,19.9,60.6,1016.6,222.3,1.3,2.8,231.7,0.17,12.1,17.3,"13:53:04",1
"16/11/13","14:10",0.0,20.0,61.6,1016.6,183.0,0.6,1.7,162.8,0.16,12.4,17.2,"14:00:08",1
"16/11/13","14:20",0.0,20.5,58.9,1016.4,128.7,0.6,2.2,125.1,0.22,12.2,17.4,"14:18:56",1
"16/11/13","14:30",0.0,20.3,60.3,1016.6,236.8,0.6,1.4,139.4,0.13,12.4,17.4,"14:21:12",1
"16/11/13","14:40",0.0,20.4,59.3,1016.6,281.8,0.6,1.4,343.3,0.14,12.2,17.4,"14:38:56",1
"16/11/13","14:50",0.0,20.3,61.9,1016.6,245.9,0.6,1.7,211.9,0.13,12.8,17.5,"14:40:40",1
"16/11/13","15:00",0.0,20.3,61.2,1016.8,250.1,1.1,2.6,237.5,0.14,12.6,17.7,"14:52:08",1
"16/11/13","15:10",0.0,20.1,61.3,1017.1,254.6,1.1,2.4,239.5,0.09,12.5,17.4,"15:04:08",1
"16/11/13","15:20",0.0,19.6,60.2,1016.8,246.6,0.8,2.7,217.2,0.07,11.7,17.4,"15:12:32",1
"16/11/13","15:30",0.0,19.7,62.5,1016.8,296.2,0.6,0.9,256.0,0.05,12.4,17.4,"15:27:28",1
"16/11/13","15:40",0.0,19.2,65.9,1016.8,296.3,0.7,1.2,313.0,0.04,12.7,17.2,"15:37:20",1
"16/11/13","15:50",0.0,18.9,69.0,1016.6,297.2,0.8,1.4,329.0,0.03,13.1,17.3,"15:40:40",1
"16/11/13","16:00",0.0,18.5,70.8,1017.1,298.4,0.6,1.0,326.1,0.03,13.1,17.1,"15:54:40",1
"16/11/13","16:10",0.0,18.1,72.8,1017.3,285.0,0.5,1.0,271.8,0.02,13.2,16.9,"16:00:16",1
"16/11/13","16:20",0.0,17.7,74.9,1017.3,296.6,0.6,1.3,321.4,0.01,13.2,17.0,"16:13:12",1
"16/11/13","16:30",0.0,17.2,77.0,1017.3,293.7,0.7,1.0,306.2,0.00,13.2,17.1,"16:21:44",1
"16/11/13","16:40",0.0,16.8,78.6,1017.8,293.6,0.6,0.9,302.5,0.00,13.1,16.8,"16:31:12",1
"16/11/13","16:50",0.0,16.4,80.4,1017.8,296.2,0.6,1.0,314.7,0.00,13.1,16.7,"16:46:32",1
"16/11/13","17:00",0.0,16.0,81.6,1017.5,287.8,0.6,1.0,325.1,0.00,12.9,16.6,"16:52:24",1
"16/11/13","17:10",0.0,15.7,82.6,1017.1,285.3,0.7,1.0,331.8,0.00,12.8,16.5,"17:05:28",1
"16/11/13","17:20",0.0,15.5,83.5,1017.5,288.3,0.7,1.1,310.9,0.00,12.8,16.5,"17:10:32",1
"16/11/13","17:30",0.0,15.3,84.0,1017.3,277.2,0.8,1.3,243.4,0.00,12.7,16.5,"17:28:08",1
"16/11/13","17:40",0.0,15.2,84.1,1017.8,287.8,0.7,1.2,326.7,0.00,12.6,16.2,"17:31:36",1
"16/11/13","17:50",0.0,15.0,84.6,1017.8,306.3,1.0,1.4,326.5,0.00,12.5,16.3,"17:40:32",1
"16/11/13","18:00",0.0,14.8,85.2,1017.8,288.6,0.7,1.0,308.2,0.00,12.4,16.1,"17:50:08",1
"16/11/13","18:10",0.0,14.7,85.7,1017.5,314.4,1.1,1.4,317.0,0.00,12.4,16.2,"18:09:44",1
"16/11/13","18:20",0.0,14.4,86.5,1017.5,303.9,0.8,1.3,316.7,0.00,12.2,16.0,"18:12:00",1
"16/11/13","18:30",0.0,14.1,87.2,1017.5,298.6,0.6,1.0,307.8,0.00,12.0,16.0,"18:28:32",1
"16/11/13","18:40",0.0,14.0,88.3,1017.3,325.5,1.3,2.6,337.4,0.00,12.1,16.0,"18:36:40",1
"16/11/13","18:50",0.0,13.6,89.0,1017.1,304.9,0.8,1.4,327.5,0.00,11.9,15.8,"18:40:08",1
"16/11/13","19:00",0.0,13.2,90.0,1017.1,318.7,1.0,1.2,319.6,0.00,11.6,15.8,"18:58:02",1
"16/11/13","19:10",0.0,12.8,90.9,1017.5,309.1,0.7,1.2,327.9,0.00,11.4,15.4,"19:09:38",1
"16/11/13","19:20",0.0,12.6,91.8,1017.3,326.4,1.2,1.9,335.5,0.00,11.3,15.5,"19:19:36",1
"16/11/13","19:30",0.0,12.4,92.7,1017.8,322.7,1.1,1.7,311.5,0.00,11.3,15.5,"19:20:24",1
"16/11/13","19:40",0.0,12.3,93.4,1018.0,295.8,0.8,1.2,313.4,0.00,11.3,15.4,"19:32:18",1
"16/11/13","19:50",0.0,12.6,93.9,1017.8,296.3,1.1,1.8,330.5,0.00,11.7,15.4,"19:49:56",1
"16/11/13","20:00",0.0,12.9,93.4,1018.2,301.2,1.0,1.4,326.5,0.00,11.9,15.3,"19:50:10",1
"16/11/13","20:10",0.0,12.9,93.0,1017.8,327.1,0.7,1.2,327.4,0.00,11.8,15.2,"20:01:28",1
"16/11/13","20:20",0.0,12.7,92.8,1017.3,302.6,0.8,1.2,317.6,0.00,11.6,15.2,"20:14:24",1
"16/11/13","20:30",0.0,12.6,93.2,1017.5,283.6,1.0,1.3,307.7,0.00,11.6,15.1,"20:25:42",1
"16/11/13","20:40",0.0,12.7,93.2,1017.8,293.0,1.0,1.3,289.3,0.00,11.7,15.0,"20:31:04",1
"16/11/13","20:50",0.0,12.7,92.9,1017.8,310.4,1.0,1.7,339.4,0.00,11.6,14.9,"20:48:34",1
"16/11/13","21:00",0.0,12.5,93.1,1017.8,309.1,1.1,1.8,321.8,0.00,11.5,14.8,"20:51:36",1
"16/11/13","21:10",0.0,12.4,93.5,1017.8,297.5,0.8,1.2,321.6,0.00,11.4,14.9,"21:00:32",1
"16/11/13","21:20",0.0,12.3,93.3,1017.8,307.7,0.8,1.3,322.0,0.00,11.3,14.9,"21:16:16",1
"16/11/13","21:30",0.0,12.0,93.5,1017.8,294.2,1.0,1.3,306.5,0.00,11.0,14.9,"21:20:56",1
"16/11/13","21:40",0.0,11.8,94.2,1017.5,299.9,1.0,1.3,318.7,0.00,10.9,14.9,"21:30:32",1
"16/11/13","21:50",0.0,12.0,94.8,1017.8,303.7,1.0,1.4,311.3,0.00,11.2,14.6,"21:44:24",1
"16/11/13","22:00",0.0,12.2,94.6,1017.5,302.9,1.0,1.4,317.9,0.00,11.4,14.7,"21:54:00",1
"16/11/13","22:10",0.0,12.3,94.4,1018.0,299.1,0.8,1.2,317.6,0.00,11.5,14.6,"22:01:20",1
"16/11/13","22:20",0.0,12.4,94.2,1017.8,301.7,1.2,1.8,314.7,0.00,11.5,14.7,"22:14:40",1
"16/11/13","22:30",0.0,12.5,93.7,1017.5,283.7,0.8,1.3,302.3,0.00,11.6,14.8,"22:23:12",1
"16/11/13","22:40",0.0,12.4,93.6,1017.3,319.0,0.2,0.6,287.5,0.00,11.4,14.5,"22:30:08",1
"16/11/13","22:50",0.0,12.3,93.8,1018.0,265.3,0.7,1.3,252.1,0.00,11.4,14.5,"22:46:48",1
"16/11/13","23:00",0.0,12.3,93.9,1017.5,321.1,1.2,1.9,335.6,0.00,11.4,14.5,"22:55:20",1
"16/11/13","23:10",0.0,12.2,94.0,1017.8,302.6,1.1,1.6,325.7,0.00,11.3,14.4,"23:00:42",1
"16/11/13","23:20",0.0,12.2,94.0,1017.5,297.6,1.0,1.4,326.5,0.00,11.3,14.4,"23:15:14",1
"16/11/13","23:30",0.0,12.1,93.9,1017.5,299.1,1.0,1.2,318.6,0.00,11.2,14.3,"23:22:32",1
"16/11/13","23:40",0.0,12.1,94.0,1017.5,291.8,0.8,1.6,325.3,0.00,11.2,14.4,"23:37:12",1
"16/11/13","23:50",0.0,12.2,93.7,1017.8,300.9,0.7,1.2,320.6,0.00,11.3,14.6,"23:49:28",1
"16/11/13","24:00",0.0,12.3,93.3,1018.0,323.6,1.2,2.4,323.7,0.00,11.3,14.4,"23:55:14",1
